Other Public Products
Issued by NWS Grand Forks, ND

Home | Current Version | Previous Version | Graphics & Text | Print | Product List | Glossary On
Versions: 1 2 3 4 5 6 7 8 9 10 11 12 13 14 15 16 17 18 19 20 21 22 23 24 25 26 27 28 29 30 31 32 33 34 35 36 37 38 39 40 41 42 43 44 45 46 47 48 49 50
000
FPUS83 KFGF 051031
OPUFGF
PRAIRIE TO PINES WEATHER ROUNDUP
NATIONAL WEATHER SERVICE EASTERN NORTH DAKOTA/GRAND FORKS ND
400 AM CST FRI FEB 05 2016

 **SATELLITE DATA USED TO AUGMENT SKY COVER AT AUTOMATED STATIONS**
 *****  WEATHER ACROSS EASTERN NORTH DAKOTA  *****

CITY           SKY/WX    TMP DP  RH WIND       PRES   REMARKS
GRAND FORKS    PTCLDY    18  12  77 S12       30.11F WCI   5
GRAND FORKS AF CLOUDY    17  12  82 S9        30.09F WCI   5
GRAND CITY NWS   N/A     16 N/A N/A S13         N/A  WCI   2
BUXTON           N/A     16  15  95 S12         N/A  WCI   3
DEVILS LAKE    CLOUDY    16  14  92 CALM      30.04F
FARGO          CLOUDY    17  11  77 S15       30.14F WCI   2
WAHPETON ARPT  CLOUDY    14  10  85 SE10      30.16F WCI   1
$$

 *****  WEATHER ACROSS CENTRAL AND WESTERN NORTH DAKOTA  *****

CITY           SKY/WX    TMP DP  RH WIND       PRES   REMARKS
JAMESTOWN      CLOUDY    21  17  84 S7        30.05S WCI  12
BISMARCK       LGT SNOW  31  27  85 CALM      30.07S FOG
MINOT          CLOUDY    25  17  72 W9        30.06R WCI  15
MINOT AFB      CLOUDY    24  21  89 NW13      30.06R WCI  12
GARRISON         N/A     25  20  81 NW6       30.05R WCI  18
WILLISTON      CLEAR     19  14  81 VRB6      30.13R WCI  11
DICKINSON      CLOUDY    29  27  92 NW9       30.03R WCI  20
HETTINGER      CLOUDY    30  25  81 W12       30.06R WCI  20
$$

 *****  OTHER OBSERVATIONS NORTHEAST NORTH DAKOTA  *****

CITY           SKY/WX    TMP DP  RH WIND       PRES   REMARKS
WALHALLA       FAIR      16  16 100 CALM      30.12R
LANGDON        FAIR      14  12  92 CALM      30.05S
CAVALIER       FAIR      16  14  93 SE3       30.11S
GRAFTON        FAIR      16  14  93 SE6       30.13S WCI   7
CANDO          CLOUDY    14  10  85 N6        30.07S WCI   5
FORT TOTTEN      N/A     17  13  85 SE3       29.95S
ROLLA          CLOUDY    16  14  93 NW5       30.05R WCI   9
RUGBY          FAIR      14  12  92 N5        30.05R WCI   6
 ***** THE ABOVE OBSERVATIONS ARE NON NWS ARE NOT QUALITY
        CONTROLLED AND MAY MIS-REPORT RAIN FOR SNOW...
$$

 *****  OTHER OBSERVATIONS SOUTHEAST NORTH DAKOTA *****

CITY           SKY/WX    TMP DP  RH WIND       PRES   REMARKS
COOPERSTOWN    NOT AVBL
VALLEY CITY    CLOUDY    21  21 100 S12       30.09S WCI   9
OAKES          PTSUNNY   19  18  93 S12       30.10S WCI   7
GWINNER        NOT AVBL
SHEYENNE NWR     N/A     17  13  83 SE6       29.95S WCI   9
BUFFALO          N/A     18  14  84 S10         N/A  WCI   6
WYNDMERE         N/A     12  10  92 SE10        N/A  WCI  -1
 ***** THE ABOVE OBSERVATIONS ARE NON NWS ARE NOT QUALITY
       CONTROLLED AND MAY MIS-REPORT RAIN FOR SNOW...
$$

  *****  WEATHER ACROSS NORTHERN MINNESOTA  *****

CITY           SKY/WX    TMP DP  RH WIND       PRES   REMARKS
FLAG ISLAND    LGT SNOW  10   7  85 CALM      30.15S
WARROAD        CLOUDY    14  10  85 S3        30.15S
ROSEAU         CLOUDY    16  10  79 S9        30.14S WCI   4
HALLOCK        CLOUDY    16  12  86 SE8       30.13S WCI   5
THF RVR FALLS  CLOUDY    16  10  79 SE8       30.13F WCI   5
HALSTAD          N/A     16  12  86 S13         N/A  WCI   2
FOSSTON        CLOUDY    12   9  85 SE7       30.13F WCI   2
BAUDETTE       CLOUDY    11   6  81 SE5       30.14F WCI   3
WASKISH        CLOUDY    10   9  92 SE3       30.17S
CROOKSTON      PTCLDY    18  12  79 S12       30.14S WCI   5
$$
  *****  WEATHER ACROSS CENTRAL AND WEST MINNESOTA  *****

CITY           SKY/WX    TMP DP  RH WIND       PRES   REMARKS
BEMIDJI        PTCLDY    10   8  89 S5        30.15F WCI   2
PARK RAPIDS    CLOUDY    10   6  84 SE8       30.17F WCI  -2
WADENA         CLOUDY    10   7  85 SE3       30.18F
DETROIT LAKES  CLOUDY    14  12  92 S10       30.15F WCI   1
MOORHEAD       CLOUDY    16  10  79 S13       30.15F WCI   2
FERGUS FALLS   CLOUDY    16  10  79 S13       30.20F WCI   2
ELBOW LAKE     FAIR      12  10  91 E12       30.18F WCI  -2
MORRIS MN      CLOUDY    10   7  85 SE9       30.19F WCI  -2
STAPLES        CLOUDY     7   3  85 S5        30.21S WCI  -2
WHEATON        CLOUDY    12  10  92 SE12      30.18F WCI  -2
$$
  *****  WEATHER ELSEWHERE ACROSS MINNESOTA  *****

CITY           SKY/WX    TMP DP  RH WIND       PRES   REMARKS
DULUTH         CLOUDY     3  -1  83 NW3       30.21R
INTRNTL FALLS  CLOUDY     5   2  87 CALM      30.19S
ELY            PTCLDY    -4  -8  84 CALM      30.20R
CLOQUET        PTCLDY    -2  -6  84 CALM      30.23R
BRAINERD       CLOUDY     1  -3  83 CALM      30.23F
HIBBING        CLOUDY    -7 -11  83 CALM      30.20S
ALEXANDRIA     CLOUDY    12   8  84 S8        30.20F WCI   0
SAINT CLOUD    PTCLDY     2  -2  83 SE3       30.28S
MINNEAPOLIS    PTCLDY     9   6  88 SW5       30.33R WCI   1
$$

  *****  WEATHER ACROSS SOUTH DAKOTA  *****

CITY           SKY/WX    TMP DP  RH WIND       PRES   REMARKS
SIOUX FALLS    CLOUDY    17  12  80 S6        30.24S WCI   9
BROOKINGS      CLOUDY    12   9  87 S12       30.18F WCI  -2
WATERTOWN      CLOUDY    14   9  80 S12       30.14F WCI   0
HURON          MOCLDY    20  15  81 S12       30.15F WCI   8
SISSETON         N/A     17  13  84 SE10      30.14F WCI   5
ABERDEEN       CLOUDY    22  16  78 S10       30.12F WCI  11
MITCHELL       CLEAR     20  15  81 S12       30.18F WCI   8
PIERRE         MOCLDY    24  19  81 SW3       30.09S
MOBRIDGE       CLOUDY    26  22  84 SE3       30.04F
RAPID CITY     MOCLDY    33  22  63 NW18G25   30.10R WCI  22
$$

  *****  SOME WEATHER IN NEARBY STATES *****

CITY           SKY/WX    TMP DP  RH WIND       PRES   REMARKS
GLASGOW MT     CLEAR     18  14  84 NW5       30.15S WCI  11
GREAT FALLS MT CLEAR     27  18  69 SW14      30.21R WCI  16
CHEYENNE WY    CLOUDY    23  10  57 NW16G28   30.16R WCI  10
SCOTTSBLUFF NE CLOUDY    26  17  68 W8        30.20R WCI  18
OMAHA NE       CLOUDY    18  16  92 SE5       30.34F WCI  11
DES MOINES IA  CLOUDY    16  11  80 CALM      30.36F
DAVENPORT IA   CLOUDY    26  19  74 NW12      30.33R WCI  16
CHICAGO IL     CLOUDY    28  23  81 SW5       30.25S WCI  23
EAU CLAIRE WI  CLOUDY     6   2  83 SW3       30.28S
LA CROSSE WI   FOG        7   5  91 CALM      30.33R VSB 1/4
$$

  *****  SOME NATIONAL WEATHER *****

CITY           SKY/WX    TMP DP  RH WIND       PRES   REMARKS
LA GUARDIA NY  LGT SNOW  34  30  86 N10       30.05R VSB 3/4
RALEIGH NC     LGT RAIN  37  34  89 N8G22     30.11R
ATLANTA GA     CLEAR     32  17  54 NW15      30.31R WCI  22
NEW ORLEANS LA CLEAR     43  24  47 NE10      30.44S
OKLAHOMA CITY  CLOUDY    30  21  69 S6        30.33R WCI  24
ALBUQUERQUE NM CLEAR     25   9  50 N13       30.30S WCI  14
SALT LAKE CITY LGT SNOW  27  24  89 SE7       30.51R VSB 1   WCI  19
LOS ANGELES CA PTCLDY    53  29  39 CALM      30.27S
BOISE ID       MIX PCPN  34  32  93 SE3       30.53S FOG
SEATTLE WA     CLOUDY    45  39  79 CALM      30.33F
$$

*** WEATHER ACROSS MANITOBA...SASKATCHEWAN AND ONTARIO ***
                ***ONTARIO***

CITY           SKY/WX    TMP DP  RH WIND       PRES   REMARKS
GERALDTON      FLURRIES   3   0  85 W5        30.11R WCI  -6
THUNDER BAY    PTCLDY     1  -2  85 SW6       30.24R WCI -10
SIOUX LOOKOUT  CLEAR     -9 -13  84 SW3       30.15S
TORONTO        MOCLDY    28  19  69 N10       30.23R WCI  19
BIG TROUT LK   CLEAR    -20 -26  76 W7        30.15R WCI -37
PICKLE LAKE    NOT AVBL
DRYDEN         CLEAR      0  -4  85 W5        30.14S WCI -10
KENORA         FLURRIES   5   3  92 S5        30.14  WCI  -4
$$
                *** MANITOBA***

CITY           SKY/WX    TMP DP  RH WIND       PRES   REMARKS
BRANDON        MOCLDY    10   9  92 N3        30.10R
DAUPHIN        CLEAR      5   1  85 W8        30.13F WCI  -8
ISLAND LAKE    NOT AVBL
PILOT MOUND      N/A     10   9  92 E1          N/A
THE PAS        MOCLDY    -2  -6  84 VRB2      30.12F
THOMPSON       PTCLDY   -22 -27  76 CALM      30.11S
WINNIPEG       LGT SNOW  16  12  86 SE5       30.15R WCI   9
LYNN LAKE      CLEAR    -26 -29  83 W8        30.07R WCI -45
CHURCHILL      MOCLDY   -35 -44  61 W10       30.14R WCI -59
GILLAM         CLEAR    -18 -24  76 W6        30.13S WCI -33
$$
                ***SASKATCHEWAN***

CITY           SKY/WX    TMP DP  RH WIND       PRES   REMARKS
ESTEVAN        CLOUDY    12  10  92 W13       30.12R WCI  -3
KINDERSLEY     PTCLDY     9   5  85 S7        30.03F WCI  -3
LLOYDMINSTER   MOCLDY    18  12  79 SW10      29.96S WCI   6
PRINCE ALBERT  FLURRIES  12   9  85 SW7       30.05R WCI   2
REGINA         CLOUDY    12  10  92 SE2       30.10F
YORKTON        FLURRIES  12  10  92 W3        30.09S   C1F1C2F2C3F3C4F4C5F5C6F6C7F7C8F8C9F9CaFaCbFbCcFcCdFdCe!


USA.gov is the U.S. government's official web portal to all federal, state and local government web resources and services.